Location: Clifton Park
(41.4873°N, 81.8024°W)
Time: 19:50:12
(UTC+00:00)

Cosmos 2227 Rocket - Pass Details

Date: 21 January 2020
Orbit: 840 x 844 km, 71.0° (Epoch: 27 February)

Event Time Altitude Azimuth Distance (km) Brightness Sun altitude
Rises 01:38:48 0° 248° (WSW) 3,389 6.2 -35.5°
Reaches altitude 10° 01:41:58 10° 266° (W) 2,458 5.4 -36.1°
Maximum altitude 01:45:54 19° 310° (NW) 1,904 4.5 -36.8°
Enters shadow 01:47:39 17° 333° (NNW) 2,028 4.4 -37.1°
